Regional Weather Roundup
Issued by NWS

Home | Current Version | Previous Version | Text Only | Print | Product List | Glossary Off
Versions: 1 2 3 4 5 6 7 8 9 10 11 12 13 14 15 16 17 18 19 20 21 22 23 24 25 26 27 28 29 30 31 32 33 34 35 36 37 38 39 40 41 42 43 44 45 46 47 48 49 50

000
ASUS43 KBIS 180310
RWRND

NORTH DAKOTA REGIONAL WEATHER ROUNDUP
NATIONAL WEATHER SERVICE BISMARCK ND
900 PM CST SAT FEB 17 2018

NOTE: "FAIR" INDICATES FEW OR NO CLOUDS BELOW 12,000 FEET WITH NO
SIGNIFICANT WEATHER AND/OR OBSTRUCTIONS TO VISIBILITY.


NDZ001>003-009>011-017-180400-
NORTHWEST NORTH DAKOTA

CITY           SKY/WX    TMP DP  RH WIND       PRES   REMARKS
WILLISTON      CLOUDY    13   5  70 NE6       29.84F WCI   4
MINOT          CLOUDY    12   3  67 CALM      29.89F
MINOT AFB      CLOUDY     8   2  77 W6        29.88F WCI  -2
$$

NDZ018>021-031>035-040>046-180400-
SOUTHWEST NORTH DAKOTA

CITY           SKY/WX    TMP DP  RH WIND       PRES   REMARKS
BISMARCK       CLOUDY    15   9  76 CALM      29.91F
DICKINSON      CLOUDY    13   8  81 E5        29.75F WCI   5
GARRISON         N/A     10   4  76 NE3       29.87F
HETTINGER ARPT CLOUDY    14   8  77 SE8       29.81F WCI   3
$$

NDZ004>008-012>016-024-026-027-054-180400-
NORTHEAST NORTH DAKOTA

CITY           SKY/WX    TMP DP  RH WIND       PRES   REMARKS
GRAND FORKS    CLOUDY    15  10  80 N6        29.97S WCI   6
GRND FRKS AFB  FAIR      11   7  83 N6        29.97S WCI   1
DEVILS LAKE    FAIR       6   2  83 W5        29.93F WCI  -3
$$

NDZ022-023-025-028>030-036>039-047>053-180400-
SOUTHEAST NORTH DAKOTA

CITY           SKY/WX    TMP DP  RH WIND       PRES   REMARKS
FARGO          FAIR      11   5  77 S8        29.98S WCI  -1
JAMESTOWN      CLOUDY    12   6  77 W5        29.93F WCI   4
$$





USA.gov is the U.S. government's official web portal to all federal, state and local government web resources and services.